DL4PY-13 Weather Reports


time (UTC)temp
F
wind
direction
speed
knots
gust
knots
rain 1hr
in
rain 24hr
in
rain mn
in
humidity
%
barometer
mb
20260506175222 48 0 0.0 13.0 0.00 0.23 0.22 90 1009.4
20260506173723 48 5 0.9 13.0 0.00 0.24 0.22 90 1009.3
20260506172223 49 293 0.0 13.0 0.00 0.24 0.22 90 1009.1
20260506170706 49 284 0.9 13.0 0.00 0.24 0.22 90 1009.1
20260506170206 49 296 0.9 13.0 0.00 0.24 0.22 90 1009.1
20260506165706 49 297 0.9 13.0 0.00 0.24 0.22 90 1009.0
20260506165222 50 298 0.9 13.0 0.00 0.24 0.22 90 1009.0
20260506164207 50 5 1.7 13.0 0.00 0.24 0.22 89 1009.0
20260506163722 50 3 0.9 13.0 0.00 0.24 0.22 88 1009.0
20260506162706 50 350 1.7 13.0 0.00 0.24 0.22 88 1008.8
20260506162223 50 325 0.9 13.0 0.00 0.24 0.22 88 1008.8
20260506161207 51 236 0.9 13.0 0.00 0.24 0.22 88 1008.8
20260506160707 51 342 0.0 13.0 0.00 0.24 0.22 88 1008.9
20260506160208 51 342 0.0 13.0 0.00 0.24 0.22 87 1008.8
20260506155707 51 342 0.0 13.0 0.00 0.24 0.22 87 1008.8
20260506155210 51 342 0.9 13.0 0.00 0.24 0.22 87 1008.8
20260506154707 51 342 0.9 13.0 0.00 0.24 0.22 87 1008.7
20260506153723 51 341 4.3 13.0 0.00 0.25 0.22 86 1008.7
20260506153208 51 9 2.6 13.0 0.00 0.25 0.22 85 1008.7
20260506152707 51 27 0.9 13.0 0.00 0.25 0.22 86 1008.6
20260506152206 51 26 1.7 13.0 0.00 0.26 0.22 86 1008.5
20260506151706 51 30 3.5 13.0 0.00 0.26 0.22 87 1008.5
20260506150708 51 330 0.9 13.0 0.00 0.26 0.22 87 1008.4
20260506150207 51 14 4.3 13.0 0.00 0.26 0.22 86 1008.3
20260506145708 51 330 0.9 13.0 0.00 0.27 0.22 88 1008.3
20260506145208 51 346 0.9 13.0 0.00 0.27 0.22 87 1008.2
20260506144206 51 337 2.6 13.0 0.00 0.27 0.22 87 1008.2
20260506143707 51 38 2.6 13.0 0.00 0.27 0.22 87 1008.1
20260506143206 51 335 5.2 13.0 0.00 0.27 0.22 87 1008.1
20260506142708 52 52 6.1 13.0 0.00 0.28 0.22 86 1008.1
20260506142206 52 29 1.7 13.0 0.00 0.28 0.22 87 1008.0
20260506141708 52 31 0.0 13.0 0.00 0.28 0.22 87 1008.0
20260506141208 52 16 1.7 13.0 0.00 0.28 0.22 88 1008.1
20260506140706 51 334 0.0 13.0 0.00 0.28 0.22 87 1008.1
20260506135706 52 69 2.6 13.0 0.00 0.28 0.22 89 1008.1
20260506135223 52 329 0.0 13.0 0.00 0.28 0.22 88 1008.0
20260506134205 52 9 0.0 13.0 0.00 0.29 0.22 89 1008.0
20260506133727 52 19 0.9 13.0 0.00 0.29 0.22 88 1007.9
20260506133207 52 9 0.0 13.0 0.00 0.29 0.22 88 1007.9
20260506132706 52 319 0.0 13.0 0.00 0.29 0.22 89 1008.0
20260506132221 52 276 0.0 13.0 0.00 0.29 0.22 88 1007.9
20260506131708 52 18 2.6 13.0 0.00 0.29 0.22 89 1007.9
20260506130707 52 59 0.0 13.0 0.00 0.29 0.22 89 1007.7
20260506125709 52 10 4.3 13.0 0.00 0.29 0.22 89 1007.6
20260506125207 52 45 0.0 13.0 0.00 0.29 0.22 90 1007.5
20260506124706 52 45 0.0 13.0 0.00 0.29 0.22 90 1007.5
20260506124207 52 15 3.5 13.0 0.00 0.29 0.22 89 1007.5
20260506123707 52 37 2.6 13.0 0.00 0.29 0.22 89 1007.4
20260506122710 53 5 0.9 13.0 0.00 0.29 0.22 90 1007.4
20260506122222 53 5 0.0 13.0 0.00 0.29 0.22 89 1007.4
20260506122206 53 0 0.9 13.0 0.00 0.29 0.22 89 1007.5
20260506121708 53 59 0.9 13.0 0.00 0.29 0.22 90 1007.5
20260506121206 53 0 0.9 13.0 0.00 0.29 0.22 91 1007.5
20260506120722 53 290 0.0 13.0 0.00 0.29 0.22 91 1007.4
20260506115707 53 290 1.7 13.0 0.01 0.29 0.22 90 1007.3
20260506115658 53 286 0.9 13.0 0.01 0.29 0.22 90 1007.4
20260506114206 54 5 1.7 13.0 0.01 0.29 0.22 90 1007.2
20260506114157 54 5 1.7 13.0 0.01 0.29 0.22 90 1007.2
20260506112706 54 0 0.0 13.0 0.02 0.29 0.22 89 1007.2
20260506112657 54 0 0.0 13.0 0.02 0.29 0.22 89 1007.2
20260506111157 54 9 1.7 13.0 0.02 0.29 0.22 92 1007.1
20260506110707 54 35 0.9 13.0 0.02 0.29 0.22 92 1007.0
20260506110207 54 123 0.0 13.0 0.02 0.29 0.22 92 1007.1
20260506105707 54 122 0.0 13.0 0.02 0.28 0.21 93 1007.0
20260506105657 54 123 0.9 13.0 0.02 0.28 0.21 93 1007.0
20260506104207 53 213 0.0 13.0 0.03 0.28 0.21 93 1006.9
20260506104158 53 213 0.0 13.0 0.03 0.28 0.21 93 1006.9
20260506103706 53 213 0.0 13.0 0.04 0.28 0.21 93 1006.9
20260506102706 53 212 0.0 13.0 0.03 0.28 0.20 93 1006.8
20260506102656 53 212 0.0 13.0 0.03 0.28 0.20 93 1006.8
20260506102207 53 213 0.0 13.0 0.03 0.28 0.20 93 1006.9
20260506101707 53 213 0.0 13.0 0.03 0.28 0.20 93 1006.8
20260506101207 53 213 0.0 13.0 0.03 0.28 0.20 93 1006.8
20260506101157 53 213 0.0 13.0 0.03 0.28 0.20 93 1006.8
20260506095658 53 211 0.0 13.0 0.02 0.27 0.20 93 1006.7
20260506094708 54 211 0.0 13.0 0.02 0.27 0.20 93 1006.6
20260506094206 54 211 0.0 13.0 0.01 0.25 0.18 92 1006.6
20260506094156 54 211 0.0 13.0 0.01 0.25 0.18 92 1006.6
20260506092656 55 205 0.0 13.0 0.00 0.24 0.17 92 1006.4
20260506092207 55 194 0.0 13.0 0.00 0.24 0.17 92 1006.3
20260506091707 55 232 1.7 13.0 0.00 0.24 0.17 92 1006.3
20260506091157 54 232 2.6 13.0 0.00 0.24 0.17 92 1006.3
20260506085706 54 229 0.9 13.0 0.00 0.24 0.17 93 1006.2
20260506085656 54 227 0.0 13.0 0.00 0.24 0.17 93 1006.2
20260506084707 54 242 1.7 13.0 0.00 0.24 0.17 93 1006.2
20260506084206 53 241 1.7 13.0 0.00 0.24 0.17 93 1006.2
20260506084157 53 241 1.7 13.0 0.00 0.24 0.17 93 1006.2
20260506083205 53 237 4.3 13.0 0.00 0.24 0.17 93 1006.2
20260506082657 54 218 4.3 13.0 0.00 0.24 0.17 94 1006.1
20260506082206 53 241 0.9 13.0 0.00 0.24 0.17 94 1006.2
20260506081706 53 250 3.5 13.0 0.00 0.24 0.17 93 1006.2